Santa Clara, CA

9:36 PM PST on February 24, 2017 (GMT -0800)
San Jose International

Weather History for KSJC - October, 2012

Change the Weather History Date:

Saturday, October 6, 2012

  Actual Average Record
Temperature  
Mean Temperature 61 °F 66 °F  
Max Temperature 71 °F 77 °F 95 °F (1987)
Min Temperature 51 °F 54 °F 37 °F (1893)
Degree Days  
Heating Degree Days 4 2  
Month to date heating degree days 4 7  
Since 1 July heating degree days 28 26  
Cooling Degree Days 0 2  
Month to date cooling degree days 35 13  
Year to date cooling degree days 479 612  
Growing Degree Days 12 (Base 50)    
Moisture  
Dew Point 52 °F    
Average Humidity 72    
Maximum Humidity 100    
Minimum Humidity 44    
Precipitation  
Precipitation 0.00 in 0.02 in 0.72 in (1939)
Month to date precipitation 0.00 0.09  
Year to date precipitation 5.55 10.82  
Since 1 July precipitation 0.01  
Sea Level Pressure  
Sea Level Pressure 30.04 in    
Wind  
Wind Speed 6 mph (NW)    
Max Wind Speed 15 mph    
Max Gust Speed 33 mph    
Visibility 10 miles    
Events      
T = Trace of Precipitation, MM = Missing Value Source: NWS Daily Summary

Daily Weather History Graph

Daily Weather History Graph

Search for Another Location

Airport or City:

Trip Planner

Search our weather history database for the weather conditions in past years. The results will help you decide how hot, cold, wet, or windy it might be!

Date:

Astronomy

Oct. 06, 2012 Rise Set
Actual Time 7:08 AM PDT 6:42 PM PDT
Civil Twilight 6:41 AM PDT 7:08 PM PDT
Nautical Twilight 6:11 AM PDT 7:38 PM PDT
Astronomical Twilight 5:41 AM PDT 8:09 PM PDT
Moon 11:08 PM PDT (10/6) 1:00 PM PDT (10/6)
Length of Visible Light 12h 26m
Length of Day
11h 34m
Waning Gibbous, 64% of the Moon is Illuminated
Oct 6
Waning Gibbous
Oct 8
Last Quarter
Oct 15
New
Oct 21
First Quarter
Oct 29
Full

Hourly Weather History & Observations

Time (PDT) Temp. Dew Point Humidity Pressure Visibility Wind Dir Wind Speed Gust Speed Precip Events Conditions
12:53 AM 57.9 °F 55.9 °F 93% 30.08 in 10.0 mi Calm Calm - N/A   Scattered Clouds
1:03 AM 57.2 °F 55.4 °F 94% 30.08 in 10.0 mi Calm Calm - N/A   Mostly Cloudy
1:49 AM 57.2 °F 53.6 °F 88% 30.08 in 10.0 mi Calm Calm - N/A   Partly Cloudy
1:53 AM 57.0 °F 54.0 °F 89% 30.08 in 10.0 mi SSW 3.5 mph - N/A   Partly Cloudy
2:53 AM 57.0 °F 53.1 °F 87% 30.07 in 10.0 mi Calm Calm - N/A   Clear
3:53 AM 55.9 °F 53.1 °F 90% 30.06 in 10.0 mi Calm Calm - N/A   Partly Cloudy
4:53 AM 55.0 °F 53.1 °F 93% 30.06 in 10.0 mi Calm Calm - N/A   Clear
5:53 AM 54.0 °F 52.0 °F 93% 30.06 in 10.0 mi Calm Calm - N/A   Clear
6:53 AM 53.1 °F 53.1 °F 100% 30.07 in 10.0 mi Calm Calm - N/A   Clear
7:53 AM 53.1 °F 53.1 °F 100% 30.07 in 10.0 mi Calm Calm - N/A   Clear
8:53 AM 57.0 °F 53.1 °F 87% 30.07 in 10.0 mi Calm Calm - N/A   Clear
9:53 AM 62.1 °F 55.0 °F 78% 30.07 in 10.0 mi Calm Calm - N/A   Clear
10:53 AM 64.9 °F 54.0 °F 68% 30.07 in 10.0 mi NNW 4.6 mph - N/A   Clear
11:53 AM 66.9 °F 54.0 °F 63% 30.06 in 10.0 mi WNW 5.8 mph - N/A   Clear
12:53 PM 69.1 °F 48.9 °F 49% 30.04 in 10.0 mi NW 9.2 mph - N/A   Clear
1:53 PM 70.0 °F 48.9 °F 47% 30.03 in 10.0 mi WNW 13.8 mph - N/A   Clear
2:53 PM 70.0 °F 48.9 °F 47% 30.00 in 10.0 mi WNW 9.2 mph - N/A   Clear
4:53 PM 70.0 °F 48.0 °F 46% 29.98 in 10.0 mi NW 11.5 mph - N/A   Clear
5:53 PM 69.1 °F 48.0 °F 47% 29.97 in 10.0 mi WNW 10.4 mph - N/A   Clear
6:53 PM 66.0 °F 50.0 °F 56% 29.97 in 10.0 mi NW 15.0 mph - N/A   Clear
7:53 PM 62.1 °F 51.1 °F 67% 29.99 in 10.0 mi NNW 11.5 mph - N/A   Clear
8:53 PM 60.8 °F 50.0 °F 68% 29.99 in 10.0 mi NW 10.4 mph - N/A   Clear
9:53 PM 60.1 °F 51.1 °F 72% 30.00 in 10.0 mi NW 10.4 mph - N/A   Clear
10:53 PM 59.0 °F 52.0 °F 78% 30.01 in 10.0 mi NW 5.8 mph - N/A   Clear
11:53 PM 57.9 °F 51.1 °F 78% 30.01 in 10.0 mi NNW 4.6 mph - N/A   Clear